"Period start","avg(HW err(1)/warn(2) (#))","avg(Visibility (m))","avg(Weather code (#))","avg(Precip intensity (mm/h))","min(HW err(1)/warn(2) (#))","max(HW err(1)/warn(2) (#))","std(HW err(1)/warn(2) (#))","med(HW err(1)/warn(2) (#))","min(Visibility (m))","max(Visibility (m))","std(Visibility (m))","med(Visibility (m))","min(Weather code (#))","max(Weather code (#))","std(Weather code (#))","med(Weather code (#))","min(Precip intensity (mm/h))","max(Precip intensity (mm/h))","std(Precip intensity (mm/h))","med(Precip intensity (mm/h))"
2017-09-10 00:00:00,2,39303,0,0.00,2,2,0,2,25928,50000,8275,40388,0,0,0,0,0.00,0.00,0.00,0.00
2017-09-10 00:10:00,2,41685,0,0.00,2,2,0,2,23164,50000,9029,45364,0,0,0,0,0.00,0.00,0.00,0.00
2017-09-10 00:20:00,2,41917,0,0.00,2,2,0,2,28910,50000,5980,42870,0,0,0,0,0.00,0.00,0.00,0.00
2017-09-10 00:30:00,2,44224,0,0.00,2,2,0,2,31779,50000,7023,48036,0,0,0,0,0.00,0.00,0.00,0.00
2017-09-10 00:40:00,2,43276,0,0.00,2,2,0,2,28577,50000,6959,45179,0,0,0,0,0.00,0.00,0.00,0.00
2017-09-10 00:50:00,2,49288,0,0.00,2,2,0,2,46154,50000,1430,50000,0,0,0,0,0.00,0.00,0.00,0.00
2017-09-10 01:00:00,2,42363,0,0.00,2,2,0,2,28079,50000,8299,44950,0,0,0,0,0.00,0.00,0.00,0.00
2017-09-10 01:10:00,2,46472,0,0.00,2,2,0,2,36539,50000,4117,47838,0,0,0,0,0.00,0.00,0.00,0.00
2017-09-10 01:20:00,2,49665,0,0.00,2,2,0,2,46646,50000,1006,50000,0,0,0,0,0.00,0.00,0.00,0.00
2017-09-10 01:30:00,2,48643,0,0.00,2,2,0,2,45254,50000,2007,50000,0,0,0,0,0.00,0.00,0.00,0.00
2017-09-10 01:40:00,2,49383,0,0.00,2,2,0,2,45734,50000,1255,50000,0,0,0,0,0.00,0.00,0.00,0.00
2017-09-10 01:50:00,2,46759,0,0.00,2,2,0,2,41009,50000,3434,48372,0,0,0,0,0.00,0.00,0.00,0.00
2017-09-10 02:00:00,2,44861,0,0.00,2,2,0,2,33025,50000,6189,49040,0,0,0,0,0.00,0.00,0.00,0.00
2017-09-10 02:10:00,2,39909,0,0.00,2,2,0,2,24658,50000,7908,39838,0,0,0,0,0.00,0.00,0.00,0.00
2017-09-10 02:20:00,2,37512,0,0.00,2,2,0,2,22871,50000,11665,40416,0,0,0,0,0.00,0.00,0.00,0.00
2017-09-10 02:30:00,2,49599,0,0.00,2,2,0,2,46250,50000,1119,50000,0,0,0,0,0.00,0.00,0.00,0.00
2017-09-10 02:40:00,2,49797,0,0.00,2,2,0,2,48686,50000,428,50000,0,0,0,0,0.00,0.00,0.00,0.00
2017-09-10 02:50:00,2,49335,0,0.00,2,2,0,2,46505,50000,1132,50000,0,0,0,0,0.00,0.00,0.00,0.00
2017-09-10 03:00:00,2,49092,0,0.00,2,2,0,2,46301,50000,1430,50000,0,0,0,0,0.00,0.00,0.00,0.00
2017-09-10 03:10:00,2,50000,0,0.00,2,2,0,2,50000,50000,0,50000,0,0,0,0,0.00,0.00,0.00,0.00
2017-09-10 03:20:00,2,49927,0,0.00,2,2,0,2,49266,50000,220,50000,0,0,0,0,0.00,0.00,0.00,0.00
2017-09-10 03:30:00,2,49977,0,0.00,2,2,0,2,49774,50000,68,50000,0,0,0,0,0.00,0.00,0.00,0.00
2017-09-10 03:40:00,2,49747,0,0.00,2,2,0,2,47787,50000,660,50000,0,0,0,0,0.00,0.00,0.00,0.00
2017-09-10 03:50:00,2,49896,0,0.00,2,2,0,2,48957,50000,313,50000,0,0,0,0,0.00,0.00,0.00,0.00
2017-09-10 04:00:00,2,49844,0,0.00,2,2,0,2,48442,50000,467,50000,0,0,0,0,0.00,0.00,0.00,0.00
2017-09-10 04:10:00,2,50000,0,0.00,2,2,0,2,50000,50000,0,50000,0,0,0,0,0.00,0.00,0.00,0.00
2017-09-10 04:20:00,2,48342,0,0.00,2,2,0,2,44638,50000,1817,49014,0,0,0,0,0.00,0.00,0.00,0.00
2017-09-10 04:30:00,2,48984,0,0.00,2,2,0,2,45240,50000,1723,49992,0,0,0,0,0.00,0.00,0.00,0.00
2017-09-10 04:40:00,2,47433,0,0.00,2,2,0,2,43161,50000,2248,48112,0,0,0,0,0.00,0.00,0.00,0.00
2017-09-10 04:50:00,2,49028,0,0.00,2,2,0,2,44682,50000,1577,49722,0,0,0,0,0.00,0.00,0.00,0.00
2017-09-10 05:00:00,2,49624,0,0.00,2,2,0,2,46237,50000,1129,50000,0,0,0,0,0.00,0.00,0.00,0.00
2017-09-10 05:10:00,2,50000,0,0.00,2,2,0,2,50000,50000,0,50000,0,0,0,0,0.00,0.00,0.00,0.00
2017-09-10 05:20:00,2,49946,0,0.00,2,2,0,2,49457,50000,163,50000,0,0,0,0,0.00,0.00,0.00,0.00
2017-09-10 05:30:00,2,50000,0,0.00,2,2,0,2,50000,50000,0,50000,0,0,0,0,0.00,0.00,0.00,0.00
2017-09-10 05:40:00,2,49927,0,0.00,2,2,0,2,49267,50000,220,50000,0,0,0,0,0.00,0.00,0.00,0.00
2017-09-10 05:50:00,2,49482,0,0.00,2,2,0,2,47362,50000,993,50000,0,0,0,0,0.00,0.00,0.00,0.00
2017-09-10 06:00:00,2,49693,0,0.00,2,2,0,2,47054,50000,880,50000,0,0,0,0,0.00,0.00,0.00,0.00
2017-09-10 06:10:00,2,49915,0,0.00,2,2,0,2,49266,50000,218,50000,0,0,0,0,0.00,0.00,0.00,0.00
2017-09-10 06:20:00,2,50000,0,0.00,2,2,0,2,50000,50000,0,50000,0,0,0,0,0.00,0.00,0.00,0.00
2017-09-10 06:30:00,2,49675,0,0.00,2,2,0,2,46746,50000,976,50000,0,0,0,0,0.00,0.00,0.00,0.00
2017-09-10 06:40:00,2,49006,0,0.00,2,2,0,2,45026,50000,1609,50000,0,0,0,0,0.00,0.00,0.00,0.00
2017-09-10 06:50:00,2,50000,0,0.00,2,2,0,2,50000,50000,0,50000,0,0,0,0,0.00,0.00,0.00,0.00
2017-09-10 07:00:00,2,49921,0,0.00,2,2,0,2,49207,50000,238,50000,0,0,0,0,0.00,0.00,0.00,0.00
2017-09-10 07:10:00,2,49773,0,0.00,2,2,0,2,48629,50000,467,50000,0,0,0,0,0.00,0.00,0.00,0.00
2017-09-10 07:20:00,2,49767,0,0.00,2,2,0,2,47674,50000,698,50000,0,0,0,0,0.00,0.00,0.00,0.00
2017-09-10 07:30:00,2,49581,0,0.00,2,2,0,2,47555,50000,852,50000,0,0,0,0,0.00,0.00,0.00,0.00
2017-09-10 07:40:00,2,49947,0,0.00,2,2,0,2,49466,50000,160,50000,0,0,0,0,0.00,0.00,0.00,0.00
2017-09-10 07:50:00,2,49899,0,0.00,2,2,0,2,48993,50000,302,50000,0,0,0,0,0.00,0.00,0.00,0.00
2017-09-10 08:00:00,2,48363,0,0.00,2,2,0,2,41679,50000,2729,50000,0,0,0,0,0.00,0.00,0.00,0.00
2017-09-10 08:10:00,2,50000,0,0.00,2,2,0,2,50000,50000,0,50000,0,0,0,0,0.00,0.00,0.00,0.00
2017-09-10 08:20:00,2,49685,0,0.00,2,2,0,2,46852,50000,944,50000,0,0,0,0,0.00,0.00,0.00,0.00
2017-09-10 08:30:00,2,49514,0,0.00,2,2,0,2,46495,50000,1084,50000,0,0,0,0,0.00,0.00,0.00,0.00
2017-09-10 08:40:00,2,49637,0,0.00,2,2,0,2,46479,50000,1053,50000,0,0,0,0,0.00,0.00,0.00,0.00
2017-09-10 08:50:00,2,49807,0,0.00,2,2,0,2,48568,50000,432,50000,0,0,0,0,0.00,0.00,0.00,0.00
2017-09-10 09:00:00,2,50000,0,0.00,2,2,0,2,50000,50000,0,50000,0,0,0,0,0.00,0.00,0.00,0.00
2017-09-10 09:10:00,2,49928,0,0.00,2,2,0,2,49280,50000,216,50000,0,0,0,0,0.00,0.00,0.00,0.00
2017-09-10 09:20:00,2,50000,0,0.00,2,2,0,2,50000,50000,0,50000,0,0,0,0,0.00,0.00,0.00,0.00
2017-09-10 09:30:00,2,50000,0,0.00,2,2,0,2,50000,50000,0,50000,0,0,0,0,0.00,0.00,0.00,0.00
2017-09-10 09:40:00,2,50000,0,0.00,2,2,0,2,50000,50000,0,50000,0,0,0,0,0.00,0.00,0.00,0.00
2017-09-10 09:50:00,2,50000,0,0.00,2,2,0,2,50000,50000,0,50000,0,0,0,0,0.00,0.00,0.00,0.00
2017-09-10 10:00:00,2,50000,0,0.00,2,2,0,2,50000,50000,0,50000,0,0,0,0,0.00,0.00,0.00,0.00
2017-09-10 10:10:00,2,50000,0,0.00,2,2,0,2,50000,50000,0,50000,0,0,0,0,0.00,0.00,0.00,0.00
2017-09-10 10:20:00,2,50000,0,0.00,2,2,0,2,50000,50000,0,50000,0,0,0,0,0.00,0.00,0.00,0.00
2017-09-10 10:30:00,2,50000,0,0.00,2,2,0,2,50000,50000,0,50000,0,0,0,0,0.00,0.00,0.00,0.00
2017-09-10 10:40:00,2,50000,0,0.00,2,2,0,2,50000,50000,0,50000,0,0,0,0,0.00,0.00,0.00,0.00
2017-09-10 10:50:00,2,50000,0,0.00,2,2,0,2,50000,50000,0,50000,0,0,0,0,0.00,0.00,0.00,0.00
2017-09-10 11:00:00,2,50000,0,0.00,2,2,0,2,50000,50000,0,50000,0,0,0,0,0.00,0.00,0.00,0.00
2017-09-10 11:10:00,2,50000,0,0.00,2,2,0,2,50000,50000,0,50000,0,0,0,0,0.00,0.00,0.00,0.00
2017-09-10 11:20:00,2,50000,0,0.00,2,2,0,2,50000,50000,0,50000,0,0,0,0,0.00,0.00,0.00,0.00
2017-09-10 11:30:00,2,50000,0,0.00,2,2,0,2,50000,50000,0,50000,0,0,0,0,0.00,0.00,0.00,0.00
2017-09-10 11:40:00,2,50000,0,0.00,2,2,0,2,50000,50000,0,50000,0,0,0,0,0.00,0.00,0.00,0.00
2017-09-10 11:50:00,2,50000,0,0.00,2,2,0,2,50000,50000,0,50000,0,0,0,0,0.00,0.00,0.00,0.00
2017-09-10 12:00:00,2,50000,0,0.00,2,2,0,2,50000,50000,0,50000,0,0,0,0,0.00,0.00,0.00,0.00
2017-09-10 12:10:00,2,50000,0,0.00,2,2,0,2,50000,50000,0,50000,0,0,0,0,0.00,0.00,0.00,0.00
2017-09-10 12:20:00,2,50000,0,0.00,2,2,0,2,50000,50000,0,50000,0,0,0,0,0.00,0.00,0.00,0.00
2017-09-10 12:30:00,2,49999,0,0.00,2,2,0,2,49989,50000,3,50000,0,0,0,0,0.00,0.00,0.00,0.00
2017-09-10 12:40:00,2,50000,0,0.00,2,2,0,2,50000,50000,0,50000,0,0,0,0,0.00,0.00,0.00,0.00
2017-09-10 12:50:00,2,50000,0,0.00,2,2,0,2,50000,50000,0,50000,0,0,0,0,0.00,0.00,0.00,0.00
2017-09-10 13:00:00,2,50000,0,0.00,2,2,0,2,50000,50000,0,50000,0,0,0,0,0.00,0.00,0.00,0.00
2017-09-10 13:10:00,2,50000,0,0.00,2,2,0,2,50000,50000,0,50000,0,0,0,0,0.00,0.00,0.00,0.00
2017-09-10 13:20:00,2,49994,0,0.00,2,2,0,2,49942,50000,17,50000,0,0,0,0,0.00,0.00,0.00,0.00
2017-09-10 13:30:00,2,50000,0,0.00,2,2,0,2,50000,50000,0,50000,0,0,0,0,0.00,0.00,0.00,0.00
2017-09-10 13:40:00,2,50000,0,0.00,2,2,0,2,50000,50000,0,50000,0,0,0,0,0.00,0.00,0.00,0.00
2017-09-10 13:50:00,2,50000,0,0.00,2,2,0,2,50000,50000,0,50000,0,0,0,0,0.00,0.00,0.00,0.00
2017-09-10 14:00:00,2,50000,0,0.00,2,2,0,2,50000,50000,0,50000,0,0,0,0,0.00,0.00,0.00,0.00
2017-09-10 14:10:00,2,50000,0,0.00,2,2,0,2,50000,50000,0,50000,0,0,0,0,0.00,0.00,0.00,0.00
2017-09-10 14:20:00,2,50000,0,0.00,2,2,0,2,50000,50000,0,50000,0,0,0,0,0.00,0.00,0.00,0.00
2017-09-10 14:30:00,2,50000,0,0.00,2,2,0,2,50000,50000,0,50000,0,0,0,0,0.00,0.00,0.00,0.00
2017-09-10 14:40:00,2,50000,0,0.00,2,2,0,2,50000,50000,0,50000,0,0,0,0,0.00,0.00,0.00,0.00
2017-09-10 14:50:00,2,50000,0,0.00,2,2,0,2,50000,50000,0,50000,0,0,0,0,0.00,0.00,0.00,0.00
2017-09-10 15:00:00,2,50000,0,0.00,2,2,0,2,50000,50000,0,50000,0,0,0,0,0.00,0.00,0.00,0.00
2017-09-10 15:10:00,2,50000,0,0.00,2,2,0,2,50000,50000,0,50000,0,0,0,0,0.00,0.00,0.00,0.00
2017-09-10 15:20:00,2,50000,0,0.00,2,2,0,2,50000,50000,0,50000,0,0,0,0,0.00,0.00,0.00,0.00
2017-09-10 15:30:00,2,50000,0,0.00,2,2,0,2,50000,50000,0,50000,0,0,0,0,0.00,0.00,0.00,0.00
2017-09-10 15:40:00,2,50000,0,0.00,2,2,0,2,50000,50000,0,50000,0,0,0,0,0.00,0.00,0.00,0.00
2017-09-10 15:50:00,2,50000,0,0.00,2,2,0,2,50000,50000,0,50000,0,0,0,0,0.00,0.00,0.00,0.00
2017-09-10 16:00:00,2,50000,0,0.00,2,2,0,2,50000,50000,0,50000,0,0,0,0,0.00,0.00,0.00,0.00
2017-09-10 16:10:00,2,50000,0,0.00,2,2,0,2,50000,50000,0,50000,0,0,0,0,0.00,0.00,0.00,0.00
2017-09-10 16:20:00,2,50000,0,0.00,2,2,0,2,50000,50000,0,50000,0,0,0,0,0.00,0.00,0.00,0.00
2017-09-10 16:30:00,2,50000,0,0.00,2,2,0,2,50000,50000,0,50000,0,0,0,0,0.00,0.00,0.00,0.00
2017-09-10 16:40:00,2,50000,0,0.00,2,2,0,2,50000,50000,0,50000,0,0,0,0,0.00,0.00,0.00,0.00
2017-09-10 16:50:00,2,50000,0,0.00,2,2,0,2,50000,50000,0,50000,0,0,0,0,0.00,0.00,0.00,0.00
2017-09-10 17:00:00,2,50000,0,0.00,2,2,0,2,50000,50000,0,50000,0,0,0,0,0.00,0.00,0.00,0.00
2017-09-10 17:10:00,2,50000,0,0.00,2,2,0,2,50000,50000,0,50000,0,0,0,0,0.00,0.00,0.00,0.00
2017-09-10 17:20:00,2,50000,0,0.00,2,2,0,2,50000,50000,0,50000,0,0,0,0,0.00,0.00,0.00,0.00
2017-09-10 17:30:00,2,50000,0,0.00,2,2,0,2,50000,50000,0,50000,0,0,0,0,0.00,0.00,0.00,0.00
2017-09-10 17:40:00,2,50000,0,0.00,2,2,0,2,50000,50000,0,50000,0,0,0,0,0.00,0.00,0.00,0.00
2017-09-10 17:50:00,2,50000,0,0.00,2,2,0,2,50000,50000,0,50000,0,0,0,0,0.00,0.00,0.00,0.00
2017-09-10 18:00:00,2,50000,0,0.00,2,2,0,2,50000,50000,0,50000,0,0,0,0,0.00,0.00,0.00,0.00
2017-09-10 18:10:00,2,50000,0,0.00,2,2,0,2,50000,50000,0,50000,0,0,0,0,0.00,0.00,0.00,0.00
2017-09-10 18:20:00,2,50000,0,0.00,2,2,0,2,50000,50000,0,50000,0,0,0,0,0.00,0.00,0.00,0.00
2017-09-10 18:30:00,2,50000,0,0.00,2,2,0,2,50000,50000,0,50000,0,0,0,0,0.00,0.00,0.00,0.00
2017-09-10 18:40:00,2,50000,0,0.00,2,2,0,2,50000,50000,0,50000,0,0,0,0,0.00,0.00,0.00,0.00
2017-09-10 18:50:00,2,50000,0,0.00,2,2,0,2,50000,50000,0,50000,0,0,0,0,0.00,0.00,0.00,0.00
2017-09-10 19:00:00,2,50000,0,0.00,2,2,0,2,50000,50000,0,50000,0,0,0,0,0.00,0.00,0.00,0.00
2017-09-10 19:10:00,2,50000,0,0.00,2,2,0,2,50000,50000,0,50000,0,0,0,0,0.00,0.00,0.00,0.00
2017-09-10 19:20:00,2,50000,0,0.00,2,2,0,2,50000,50000,0,50000,0,0,0,0,0.00,0.00,0.00,0.00
2017-09-10 19:30:00,2,50000,0,0.00,2,2,0,2,50000,50000,0,50000,0,0,0,0,0.00,0.00,0.00,0.00
2017-09-10 19:40:00,2,50000,0,0.00,2,2,0,2,50000,50000,0,50000,0,0,0,0,0.00,0.00,0.00,0.00
2017-09-10 19:50:00,2,50000,0,0.00,2,2,0,2,50000,50000,0,50000,0,0,0,0,0.00,0.00,0.00,0.00
2017-09-10 20:00:00,2,50000,0,0.00,2,2,0,2,50000,50000,0,50000,0,0,0,0,0.00,0.00,0.00,0.00
2017-09-10 20:10:00,2,50000,0,0.00,2,2,0,2,50000,50000,0,50000,0,0,0,0,0.00,0.00,0.00,0.00
2017-09-10 20:20:00,2,50000,0,0.00,2,2,0,2,50000,50000,0,50000,0,0,0,0,0.00,0.00,0.00,0.00
2017-09-10 20:30:00,2,49978,0,0.00,2,2,0,2,49784,50000,65,50000,0,0,0,0,0.00,0.00,0.00,0.00
2017-09-10 20:40:00,2,50000,0,0.00,2,2,0,2,50000,50000,0,50000,0,0,0,0,0.00,0.00,0.00,0.00
2017-09-10 20:50:00,2,50000,0,0.00,2,2,0,2,50000,50000,0,50000,0,0,0,0,0.00,0.00,0.00,0.00
2017-09-10 21:00:00,2,50000,0,0.00,2,2,0,2,50000,50000,0,50000,0,0,0,0,0.00,0.00,0.00,0.00
2017-09-10 21:10:00,2,50000,0,0.00,2,2,0,2,50000,50000,0,50000,0,0,0,0,0.00,0.00,0.00,0.00
2017-09-10 21:20:00,2,49979,0,0.00,2,2,0,2,49791,50000,63,50000,0,0,0,0,0.00,0.00,0.00,0.00
2017-09-10 21:30:00,2,50000,0,0.00,2,2,0,2,50000,50000,0,50000,0,0,0,0,0.00,0.00,0.00,0.00
2017-09-10 21:40:00,2,50000,0,0.00,2,2,0,2,50000,50000,0,50000,0,0,0,0,0.00,0.00,0.00,0.00
2017-09-10 21:50:00,2,50000,0,0.00,2,2,0,2,50000,50000,0,50000,0,0,0,0,0.00,0.00,0.00,0.00
2017-09-10 22:00:00,2,49999,0,0.00,2,2,0,2,49986,50000,4,50000,0,0,0,0,0.00,0.00,0.00,0.00
2017-09-10 22:10:00,2,50000,0,0.00,2,2,0,2,50000,50000,0,50000,0,0,0,0,0.00,0.00,0.00,0.00
2017-09-10 22:20:00,2,50000,0,0.00,2,2,0,2,50000,50000,0,50000,0,0,0,0,0.00,0.00,0.00,0.00
2017-09-10 22:30:00,2,49844,0,0.00,2,2,0,2,48441,50000,468,50000,0,0,0,0,0.00,0.00,0.00,0.00
2017-09-10 22:40:00,2,49020,0,0.00,2,2,0,2,45094,50000,1961,50000,0,0,0,0,0.00,0.00,0.00,0.00
2017-09-10 22:50:00,2,48198,0,0.00,2,2,0,2,42948,50000,2548,50000,0,0,0,0,0.00,0.00,0.00,0.00
2017-09-10 23:00:00,2,48963,0,0.00,2,2,0,2,44044,50000,1796,50000,0,0,0,0,0.00,0.00,0.00,0.00
2017-09-10 23:10:00,2,49552,0,0.00,2,2,0,2,46482,50000,1063,50000,0,0,0,0,0.00,0.00,0.00,0.00
2017-09-10 23:20:00,2,47771,0,0.00,2,2,0,2,38850,50000,3515,50000,0,0,0,0,0.00,0.00,0.00,0.00
2017-09-10 23:30:00,2,47109,0,0.00,2,2,0,2,37985,50000,4036,49469,0,0,0,0,0.00,0.00,0.00,0.00
2017-09-10 23:40:00,2,44412,0,0.00,2,2,0,2,26006,50000,7589,48960,0,0,0,0,0.00,0.00,0.00,0.00
2017-09-10 23:50:00,2,35766,0,0.00,2,2,0,2,20252,49961,9998,36672,0,0,0,0,0.00,0.00,0.00,0.00
